H1 CPF 2 NER 2021 6 30 9 181 01 glonass139 H2 1808601 9139 43687 2021 6 30 0 0 0 2021 7 3 23 45 0 900 1 1 0 0 0 1 H9 10 0 59395 0.00000 0 22771355.447 -4647556.768 10542495.082 10 0 59395 900.00000 0 21401061.503 -4112679.927 13284299.779 10 0 59395 1800.00000 0 19794535.002 -3319988.898 15768491.876 10 0 59395 2700.00000 0 18011052.837 -2254327.575 17946983.007 10 0 59395 3600.00000 0 16113727.729 -912696.662 19777624.409 10 0 59395 4500.00000 0 14166931.225 695368.122 21225011.912 10 0 59395 5400.00000 0 12233685.674 2547945.697 22261160.558 10 0 59395 6300.00000 0 10373132.965 4611401.749 22866037.014 10 0 59395 7200.00000 0 8638184.369 6841556.160 23027940.468 10 0 59395 8100.00000 0 7073447.947 9185298.405 22743725.504 10 0 59395 9000.00000 0 5713518.424 11582585.295 22018863.055 10 0 59395 9900.00000 0 4581699.487 13968739.574 20867338.316 10 0 59395 10800.00000 0 3689210.644 16276955.637 19311387.211 10 0 59395 11700.00000 0 3034910.894 18440909.835 17381075.742 10 0 59395 12600.00000 0 2605550.299 20397368.127 15113729.330 10 0 59395 13500.00000 0 2376538.680 22088683.642 12553221.967 10 0 59395 14400.00000 0 2313199.224 23465080.682 9749137.619 10 0 59395 15300.00000 0 2372454.526 24486630.019 6755819.021 10 0 59395 16200.00000 0 2504874.249 25124832.741 3631321.300 10 0 59395 17100.00000 0 2656998.154 25363745.772 436290.022 10 0 59395 18000.00000 0 2773836.310 25200601.045 -2767214.797 10 0 59395 18900.00000 0 2801440.355 24645891.451 -5916925.869 10 0 59395 19800.00000 0 2689436.302 23722918.929 -8951583.221 10 0 59395 20700.00000 0 2393410.614 22466822.889 -11812131.862 10 0 59395 21600.00000 0 1877047.206 20923129.120 -14442878.511 10 0 59395 22500.00000 0 1113923.322 19145879.735 -16792584.044 10 0 59395 23400.00000 0 88886.620 17195422.595 -18815469.506 10 0 59395 24300.00000 0 -1201046.498 15135953.080 -20472115.399 10 0 59395 25200.00000 0 -2746311.044 13032911.574 -21730236.182 10 0 59395 26100.00000 0 -4524949.716 10950346.150 -22565314.403 10 0 59395 27000.00000 0 -6503300.193 8948351.247 -22961081.893 10 0 59395 27900.00000 0 -8637185.872 7080689.770 -22909838.529 10 0 59395 28800.00000 0 -10873560.980 5392698.210 -22412602.305 10 0 59395 29700.00000 0 -13152541.851 3919562.173 -21479087.885 10 0 59395 30600.00000 0 -15409739.729 2685033.924 -20127514.144 10 0 59395 31500.00000 0 -17578797.582 1700644.788 -18384244.623 10 0 59395 32400.00000 0 -19594024.846 965444.199 -16283268.148 10 0 59395 33300.00000 0 -21393019.743 466274.800 -13865529.958 10 0 59395 34200.00000 0 -22919169.262 178570.378 -11178126.838 10 0 59395 35100.00000 0 -24123922.146 67641.163 -8273382.386 10 0 59395 36000.00000 0 -24968739.754 90390.473 -5207820.981 10 0 59395 36900.00000 0 -25426643.334 197388.476 -2041061.172 10 0 59395 37800.00000 0 -25483293.448 335213.864 1165349.286 10 0 59395 38700.00000 0 -25137557.047 448963.064 4349133.499 10 0 59395 39600.00000 0 -24401539.419 484819.867 7448496.563 10 0 59395 40500.00000 0 -23300080.778 392576.083 10403323.961 10 0 59395 41400.00000 0 -21869739.681 127996.293 13156343.869 10 0 59395 42300.00000 0 -20157306.837 -345073.280 15654230.951 10 0 59395 43200.00000 0 -18217912.233 -1052940.675 17848630.847 10 0 59395 44100.00000 0 -16112805.038 -2010723.067 19697086.341 10 0 59395 45000.00000 0 -13906898.976 -3221477.066 21163848.306 10 0 59395 45900.00000 0 -11666185.036 -4675841.066 22220556.941 10 0 59395 46800.00000 0 -9455118.403 -6352205.025 22846781.325 10 0 59395 47700.00000 0 -7334087.165 -8217401.243 23030407.898 10 0 59395 48600.00000 0 -5357066.662 -10227888.369 22767871.180 10 0 59395 49500.00000 0 -3569555.398 -12331380.666 22064222.729 10 0 59395 50400.00000 0 -2006876.975 -14468856.144 20933037.047 10 0 59395 51300.00000 0 -692917.287 -16576861.683 19396155.915 10 0 59395 52200.00000 0 360651.503 -18590020.802 17483275.305 10 0 59395 53100.00000 0 1154628.620 -20443641.012 15231381.887 10 0 59395 54000.00000 0 1702013.707 -22076313.285 12684048.775 10 0 59395 54900.00000 0 2027218.843 -23432395.901 9890602.843 10 0 59395 55800.00000 0 2164796.604 -24464279.178 6905178.637 10 0 59395 56700.00000 0 2157737.620 -25134336.205 3785676.178 10 0 59395 57600.00000 0 2055409.297 -25416477.282 592642.189 10 0 59395 58500.00000 0 1911222.743 -25297241.952 -2611903.828 10 0 59395 59400.00000 0 1780126.787 -24776381.660 -5765675.847 10 0 59395 60300.00000 0 1716035.664 -23866907.333 -8807336.175 10 0 59395 61200.00000 0 1769300.062 -22594598.706 -11677694.557 10 0 59395 62100.00000 0 1984329.758 -20996994.970 -14320867.509 10 0 59395 63000.00000 0 2397469.857 -19121908.339 -16685374.457 10 0 59395 63900.00000 0 3035222.000 -17025522.427 -18725148.460 10 0 59395 64800.00000 0 3912887.399 -14770154.955 -20400441.155 10 0 59395 65700.00000 0 5033690.651 -12421778.481 -21678603.696 10 0 59395 66600.00000 0 6388422.830 -10047403.183 -22534728.040 10 0 59395 67500.00000 0 7955620.320 -7712431.352 -22952135.822 10 0 59395 68400.00000 0 9702273.119 -5478094.339 -22922705.183 10 0 59395 69300.00000 0 11585033.764 -3399079.175 -22447029.140 10 0 59395 70200.00000 0 13551876.855 -1521443.804 -21534402.482 10 0 59395 71100.00000 0 15544140.025 119092.443 -20202637.540 10 0 59395 72000.00000 0 17498860.886 1498412.385 -18477712.596 10 0 59395 72900.00000 0 19351312.006 2604766.830 -16393259.997 10 0 59395 73800.00000 0 21037627.496 3439012.118 -13989904.223 10 0 59395 74700.00000 0 22497410.780 4014311.055 -11314463.213 10 0 59395 75600.00000 0 23676213.979 4355311.792 -8419029.012 10 0 59395 76500.00000 0 24527784.761 4496841.193 -5359946.180 10 0 59395 77400.00000 0 25015986.363 4482169.761 -2196708.610 10 0 59395 78300.00000 0 25116310.423 4360923.200 1009203.107 10 0 59395 79200.00000 0 24816919.594 4186730.473 4195520.509 10 0 59395 80100.00000 0 24119176.805 4014709.059 7300398.344 10 0 59395 81000.00000 0 23037639.802 3898894.662 10263614.037 10 0 59395 81900.00000 0 21599521.976 3889724.601 13027732.198 10 0 59395 82800.00000 0 19843642.936 4031681.382 15539211.690 10 0 59395 83700.00000 0 17818913.282 4361195.840 17749434.356 10 0 59395 84600.00000 0 15582417.217 4904898.045 19615636.365 10 0 59395 85500.00000 0 13197173.023 5678289.269 21101725.062 10 0 59396 0.00000 0 10729664.273 6684890.617 22178966.808 10 0 59396 900.00000 0 8247243.578 7915904.485 22826533.725 10 0 59396 1800.00000 0 5815515.729 9350402.189 23031899.658 10 0 59396 2700.00000 0 3495807.753 10956032.466 22791078.757 10 0 59396 3600.00000 0 1342828.632 12690220.509 22108702.434 10 0 59396 4500.00000 0 -597384.934 14501809.908 20997933.264 10 0 59396 5400.00000 0 -2289153.336 16333080.085 19480217.199 10 0 59396 6300.00000 0 -3708400.536 18122056.789 17584878.116 10 0 59396 7200.00000 0 -4843411.302 19805020.637 15348561.533 10 0 59396 8100.00000 0 -5695068.349 21319110.266 12814537.047 10 0 59396 9000.00000 0 -6276559.942 22604912.150 10031871.634 10 0 59396 9900.00000 0 -6612570.323 23608929.181 7054488.743 10 0 59396 10800.00000 0 -6737987.074 24285824.553 3940130.351 10 0 59396 11700.00000 0 -6696179.773 24600346.363 749241.413 10 0 59396 12600.00000 0 -6536922.527 24528851.192 -2456201.937 10 0 59396 13500.00000 0 -6314048.321 24060361.443 -5613897.673 10 0 59396 14400.00000 0 -6082934.736 23197110.585 -8662432.931 10 0 59396 15300.00000 0 -5897928.050 21954551.933 -11542484.519 10 0 59396 16200.00000 0 -5809815.693 20360829.215 -14197980.794 10 0 59396 17100.00000 0 -5863455.170 18455729.962 -16577201.469 10 0 59396 18000.00000 0 -6095661.101 16289164.742 -18633793.055 10 0 59396 18900.00000 0 -6533441.138 13919235.367 -20327679.449 10 0 59396 19800.00000 0 -7192656.785 11409972.574 -21625849.354 10 0 59396 20700.00000 0 -8077166.977 8828837.780 -22503004.701 10 0 59396 21600.00000 0 -9178491.859 6244093.314 -22942057.217 10 0 59396 22500.00000 0 -10476012.001 3722151.010 -22934463.301 10 0 59396 23400.00000 0 -11937695.524 1325009.929 -22480390.662 10 0 59396 24300.00000 0 -13521323.202 -892110.029 -21588713.529 10 0 59396 25200.00000 0 -15176160.446 -2882840.222 -20276836.639 10 0 59396 26100.00000 0 -16845006.032 -4611355.141 -18570351.599 10 0 59396 27000.00000 0 -18466531.467 -6053614.377 -16502532.541 10 0 59396 27900.00000 0 -19977812.514 -7198104.029 -14113681.165 10 0 59396 28800.00000 0 -21316946.135 -8046048.087 -11450334.339 10 0 59396 29700.00000 0 -22425642.548 -8611082.779 -8564350.191 10 0 59396 30600.00000 0 -23251683.127 -8918409.660 -5511891.005 10 0 59396 31500.00000 0 -23751140.565 -9003465.090 -2352323.513 10 0 59396 32400.00000 0 -23890267.936 -8910164.271 852941.382 10 0 59396 33300.00000 0 -23646977.397 -8688795.777 4041646.206 10 0 59396 34200.00000 0 -23011846.710 -8393657.002 7151897.912 10 0 59396 35100.00000 0 -21988611.844 -8080531.677 10123368.415 10 0 59396 36000.00000 0 -20594125.559 -7804116.754 12898461.251 10 0 59396 36900.00000 0 -18857784.282 -7615507.720 15423421.844 10 0 59396 37800.00000 0 -16820447.760 -7559848.460 17649370.432 10 0 59396 38700.00000 0 -14532896.804 -7674244.486 19533238.461 10 0 59396 39600.00000 0 -12053893.462 -7986026.934 21038591.321 10 0 59396 40500.00000 0 -9447923.986 -8511439.914 22136322.729 10 0 59396 41400.00000 0 -6782717.576 -9254805.991 22805208.550 10 0 59396 42300.00000 0 -4126642.944 -10208204.700 23032310.368 10 0 59396 43200.00000 0 -1546089.240 -11351677.837 22813221.899 10 0 59396 44100.00000 0 897061.637 -12653953.535 22152153.947 10 0 59396 45000.00000 0 3147768.080 -14073659.850 21061856.367 10 0 59396 45900.00000 0 5159871.997 -15560978.330 19563378.183 10 0 59396 46800.00000 0 6897768.775 -17059669.945 17685669.789 10 0 59396 47700.00000 0 8337635.645 -18509390.006 15465033.903 10 0 59396 48600.00000 0 9468168.147 -19848196.590 12944434.676 10 0 59396 49500.00000 0 10290794.560 -21015148.421 10172677.018 10 0 59396 50400.00000 0 10819359.537 -21952883.916 7203470.871 10 0 59396 51300.00000 0 11079290.373 -22610073.354 4094397.577 10 0 59396 52200.00000 0 11106280.938 -22943640.822 905797.587 10 0 59396 53100.00000 0 10944548.648 -22920661.688 -2300399.133 10 0 59396 54000.00000 0 10644738.108 -22519854.622 -5461877.364 10 0 59396 54900.00000 0 10261560.211 -21732603.858 -8517151.847 10 0 59396 55800.00000 0 9851266.970 -20563467.055 -11406769.129 10 0 59396 56700.00000 0 9469069.598 -19030145.746 -14074471.955 10 0 59396 57600.00000 0 9166610.005 -17162918.071 -16468302.708 10 0 59396 58500.00000 0 8989593.756 -15003556.284 -18541623.493 10 0 59396 59400.00000 0 8975685.761 -12603773.423 -20254032.316 10 0 59396 60300.00000 0 9152758.868 -10023263.390 -21572156.920 10 0 59396 61200.00000 0 9537570.450 -7327416.039 -22470310.303 10 0 59396 62100.00000 0 10134923.920 -4584802.488 -22930994.938 10 0 59396 63000.00000 0 10937351.401 -1864535.469 -22945245.693 10 0 59396 63900.00000 0 11925331.613 766385.112 -22512804.748 10 0 59396 64800.00000 0 13068034.271 3245630.884 -21642125.158 10 0 59396 65700.00000 0 14324559.916 5517901.557 -20350203.081 10 0 59396 66600.00000 0 15645622.999 7536981.398 -18662242.132 10 0 59396 67500.00000 0 16975607.207 9267410.598 -16611156.588 10 0 59396 68400.00000 0 18254906.229 10685702.788 -14236923.417 10 0 59396 69300.00000 0 19422450.923 11781059.077 -11585796.163 10 0 59396 70200.00000 0 20418316.004 12555550.449 -8709396.486 10 0 59396 71100.00000 0 21186296.007 13023762.783 -5663701.601 10 0 59396 72000.00000 0 21676341.574 13211921.445 -2507948.071 10 0 59396 72900.00000 0 21846753.250 13156534.398 696526.008 10 0 59396 73800.00000 0 21666040.269 12902613.021 3887477.296 10 0 59396 74700.00000 0 21114366.233 12501547.395 7002968.028 10 0 59396 75600.00000 0 20184521.091 12008727.168 9982567.510 10 0 59396 76500.00000 0 18882378.958 11481009.428 12768520.872 10 0 59396 77400.00000 0 17226822.932 10974140.996 15306862.497 10 0 59396 78300.00000 0 15249140.356 10540244.008 17548453.092 10 0 59396 79200.00000 0 12991913.900 10225470.478 19449921.139 10 0 59396 80100.00000 0 10507454.643 10067924.087 20974491.491 10 0 59396 81000.00000 0 7855841.980 10095935.922 22092686.278 10 0 59396 81900.00000 0 5102650.996 10326765.923 22782885.822 10 0 59396 82800.00000 0 2316460.647 10765784.020 23031739.725 10 0 59396 83700.00000 0 -433755.347 11406165.046 22834421.102 10 0 59396 84600.00000 0 -3081248.371 12229110.324 22194719.534 10 0 59396 85500.00000 0 -5564018.560 13204587.126 21124971.039 10 0 59397 0.00000 0 -7827139.317 14292555.900 19645826.174 10 0 59397 900.00000 0 -9824787.635 15444635.127 17785859.737 10 0 59397 1800.00000 0 -11521897.528 16606134.978 15581029.289 10 0 59397 2700.00000 0 -12895367.704 17718376.228 13073990.841 10 0 59397 3600.00000 0 -13934775.199 18721197.935 10313284.351 10 0 59397 4500.00000 0 -14642564.258 19555549.414 7352403.281 10 0 59397 5400.00000 0 -15033703.281 20166057.920 4248765.335 10 0 59397 6300.00000 0 -15134824.041 20503463.864 1062603.514 10 0 59397 7200.00000 0 -14982879.249 20526820.373 -2144201.262 10 0 59397 8100.00000 0 -14623375.018 20205363.459 -5309323.334 10 0 59397 9000.00000 0 -14108252.894 19519972.529 -8371207.640 10 0 59397 9900.00000 0 -13493511.151 18464158.015 -11270272.859 10 0 59397 10800.00000 0 -12836666.398 17044532.711 -13950078.280 10 0 59397 11700.00000 0 -12194163.519 15280745.166 -16358430.805 10 0 59397 12600.00000 0 -11618844.288 13204876.322 -18448409.674 10 0 59397 13500.00000 0 -11157582.610 10860323.276 -20179288.214 10 0 59397 14400.00000 0 -10849187.297 8300215.759 -21517334.072 10 0 59397 15300.00000 0 -10722661.850 5585430.854 -22436471.851 10 0 59397 16200.00000 0 -10795895.519 2782288.332 -22918794.973 10 0 59397 17100.00000 0 -11074841.508 -39977.565 -22954916.643 10 0 59397 18000.00000 0 -11553217.425 -2811864.514 -22544153.042 10 0 59397 18900.00000 0 -12212740.832 -5466256.549 -21694535.223 10 0 59397 19800.00000 0 -13023890.023 -7940976.105 -20422649.595 10 0 59397 20700.00000 0 -13947157.757 -10181127.511 -18753310.265 10 0 59397 21600.00000 0 -14934744.768 -12141134.752 -16719069.840 10 0 59397 22500.00000 0 -15932621.161 -13786389.243 -14359578.496 10 0 59397 23400.00000 0 -16882868.160 -15094439.788 -11720804.208 10 0 59397 24300.00000 0 -17726200.770 -16055676.365 -8854129.806 10 0 59397 25200.00000 0 -18404564.309 -16673480.780 -5815345.010 10 0 59397 26100.00000 0 -18863694.628 -16963839.725 -2663553.773 10 0 59397 27000.00000 0 -19055533.580 -16954438.545 539981.064 10 0 59397 27900.00000 0 -18940397.524 -16683275.849 3733032.738 10 0 59397 28800.00000 0 -18488807.340 -16196859.179 6853621.197 10 0 59397 29700.00000 0 -17682902.911 -15548059.381 9841215.563 10 0 59397 30600.00000 0 -16517382.696 -14793715.382 12637904.937 10 0 59397 31500.00000 0 -14999929.164 -13992091.084 15189514.934 10 0 59397 32400.00000 0 -13151102.383 -13200291.874 17446648.845 10 0 59397 33300.00000 0 -11003706.221 -12471749.359 19365634.084 10 0 59397 34200.00000 0 -8601653.462 -11853879.642 20909356.553 10 0 59397 35100.00000 0 -5998376.655 -11386012.751 22047968.051 10 0 59397 36000.00000 0 -3254849.943 -11097679.255 22759454.228 10 0 59397 36900.00000 0 -437302.983 -11007325.059 23030053.201 10 0 59397 37800.00000 0 2385279.637 -11121507.541 22854517.599 10 0 59397 38700.00000 0 5143771.517 -11434606.319 22236215.539 10 0 59397 39600.00000 0 7771523.402 -11929060.689 21187068.637 10 0 59397 40500.00000 0 10206881.211 -12576124.157 19727328.017 10 0 59397 41400.00000 0 12395500.274 -13337105.117 17885191.874 10 0 59397 42300.00000 0 14292360.912 -14165042.585 15696271.032 10 0 59397 43200.00000 0 15863402.622 -15006747.730 13202911.581 10 0 59397 44100.00000 0 17086709.461 -15805126.449 10453386.398 10 0 59397 45000.00000 0 17953197.426 -16501686.139 7500970.024 10 0 59397 45900.00000 0 18466775.201 -17039121.632 4402913.788 10 0 59397 46800.00000 0 18643971.403 -17363871.411 1219340.262 10 0 59397 47700.00000 0 18513043.759 -17428535.878 -1987921.796 10 0 59397 48600.00000 0 18112607.499 -17194054.786 -5156539.458 10 0 59397 49500.00000 0 17489840.694 -16631550.607 -8224890.981 10 0 59397 50400.00000 0 16698342.261 -15723758.438 -11133270.170 10 0 59397 51300.00000 0 15795733.367 -14465980.291 -13825055.635 10 0 59397 52200.00000 0 14841103.993 -12866521.568 -16247821.338 10 0 59397 53100.00000 0 13892413.131 -10946589.531 -18354365.876 10 0 59397 54000.00000 0 13003953.166 -8739656.258 -20103639.774 10 0 59397 54900.00000 0 12223986.256 -6290311.315 -21461552.086 10 0 59397 55800.00000 0 11592653.183 -3652651.047 -22401640.092 10 0 59397 56700.00000 0 11140243.510 -888270.984 -22905588.782 10 0 59397 57600.00000 0 10885900.386 1936055.459 -22963589.870 10 0 59397 58500.00000 0 10836814.863 4750915.402 -22574533.250 10 0 59397 59400.00000 0 10987943.650 7486906.446 -21746027.267 10 0 59397 60300.00000 0 11322261.996 10077287.922 -20494247.477 10 0 59397 61200.00000 0 11811540.586 12460522.994 -18843617.011 10 0 59397 62100.00000 0 12417613.107 14582606.000 -16826325.012 10 0 59397 63000.00000 0 13094080.228 16399078.432 -14481692.749 10 0 59397 63900.00000 0 13788377.254 17876650.036 -11855400.224 10 0 59397 64800.00000 0 14444117.259 18994358.373 -8998588.771 10 0 59397 65700.00000 0 15003609.854 19744219.630 -5966857.709 10 0 59397 66600.00000 0 15410448.384 20131344.994 -2819175.316 10 0 59397 67500.00000 0 15612055.584 20173519.531 383273.998 10 0 59397 68400.00000 0 15562079.658 19900263.196 3578283.218 10 0 59397 69300.00000 0 15222539.314 19351415.293 6703833.094 10 0 59397 70200.00000 0 14565627.139 18575303.676 9699295.465 10 0 59397 71100.00000 0 13575095.311 17626577.146 12506606.065 10 0 59397 72000.00000 0 12247165.442 16563793.242 15071384.116 10 0 59397 72900.00000 0 10590924.418 15446863.467 17343977.557 10 0 59397 73800.00000 0 8628189.536 14334463.363 19280414.468 10 0 59397 74700.00000 0 6392848.420 13281515.860 20843243.210 10 0 59397 75600.00000 0 3929700.729 12336852.729 22002246.301 10 0 59397 76500.00000 0 1292849.045 11541151.169 22735015.419 10 0 59397 77400.00000 0 -1456295.207 10925230.887 23027377.479 10 0 59397 78300.00000 0 -4251309.457 10508781.889 22873664.493 10 0 59397 79200.00000 0 -7023267.692 10299575.387 22276822.501 10 0 59397 80100.00000 0 -9703355.844 10293190.254 21248357.626 10 0 59397 81000.00000 0 -12225488.241 10473266.320 19808120.011 10 0 59397 81900.00000 0 -14528818.261 10812274.031 17983929.104 10 0 59397 82800.00000 0 -16560040.243 11272768.720 15811046.566 10 0 59397 83700.00000 0 -18275388.076 11809077.562 13331505.752 10 0 59397 84600.00000 0 -19642247.985 12369349.127 10593309.426 10 0 59397 85500.00000 0 -20640318.461 12897880.034 7649510.047 10 0 59398 0.00000 0 -21262268.974 13337621.284 4557189.460 10 0 59398 900.00000 0 -21513869.450 13632758.478 1376356.557 10 0 59398 1800.00000 0 -21413585.245 13731257.611 -1831215.011 10 0 59398 2700.00000 0 -20991653.241 13587266.788 -5003187.914 10 0 59398 3600.00000 0 -20288678.771 13163272.850 -8077876.410 10 0 59398 4500.00000 0 -19353811.481 12431919.186 -10995451.919 10 0 59398 5400.00000 0 -18242577.431 11377406.690 -13699114.612 10 0 59398 6300.00000 0 -17014459.033 9996416.618 -16136207.449 10 0 59398 7200.00000 0 -15730325.330 8298514.533 -18259249.998 10 0 59398 8100.00000 0 -14449821.568 6306016.398 -20026871.203 10 0 59398 9000.00000 0 -13228828.693 4053320.654 -21404622.334 10 0 59398 9900.00000 0 -12117100.467 1585732.892 -22365653.730 10 0 59398 10800.00000 0 -11156178.194 -1042168.912 -22891241.925 10 0 59398 11700.00000 0 -10377671.134 -3768561.118 -22971156.697 10 0 59398 12600.00000 0 -9801975.136 -6526709.005 -22603860.831 10 0 59398 13500.00000 0 -9437483.204 -9247512.182 -21796538.776 10 0 59398 14400.00000 0 -9280320.838 -11862154.907 -20564953.709 10 0 59398 15300.00000 0 -9314616.586 -14304750.832 -18933135.978 10 0 59398 16200.00000 0 -9513295.572 -16514872.074 -16932909.205 10 0 59398 17100.00000 0 -9839361.468 -18439857.351 -14603263.529 10 0 59398 18000.00000 0 -10247611.683 -20036803.142 -11989588.651 10 0 59398 18900.00000 0 -10686712.174 -21274155.385 -9142782.043 10 0 59398 19800.00000 0 -11101543.040 -22132836.096 -6118250.283 10 0 59398 20700.00000 0 -11435714.681 -22606858.873 -2974823.681 10 0 59398 21600.00000 0 -11634147.224 -22703409.066 226393.986 10 0 59398 22500.00000 0 -11645603.399 -22442386.874 3423217.604 10 0 59398 23400.00000 0 -11425067.314 -21855434.292 6553590.821 10 0 59398 24300.00000 0 -10935868.340 -20984488.498 9556790.260 10 0 59398 25200.00000 0 -10151460.367 -19879923.922 12374600.308 10 0 59398 26100.00000 0 -9056781.455 -18598362.229 14952435.758 10 0 59398 27000.00000 0 -7649136.752 -17200242.918 17240391.058 10 0 59398 27900.00000 0 -5938567.479 -15747256.735 19194196.653 10 0 59398 28800.00000 0 -3947690.426 -14299749.302 20776064.863 10 0 59398 29700.00000 0 -1711014.150 -12914203.075 21955410.175 10 0 59398 30600.00000 0 726240.391 -11640901.968 22709431.247 10 0 59398 31500.00000 0 3309766.651 -10521875.157 23023544.453 10 0 59398 32400.00000 0 5978180.576 -9589204.664 22891661.523 10 0 59398 33300.00000 0 8665328.208 -8863766.257 22316306.460 10 0 59398 34200.00000 0 11302798.741 -8354455.301 21308569.631 10 0 59398 35100.00000 0 13822540.610 -8057929.222 19887899.642 10 0 59398 36000.00000 0 16159473.748 -7958877.042 18081736.342 10 0 59398 36900.00000 0 18253990.896 -8030804.715 15924991.067 10 0 59398 37800.00000 0 20054245.149 -8237303.643 13459382.945 10 0 59398 38700.00000 0 21518129.212 -8533749.579 10732642.779 10 0 59398 39600.00000 0 22614864.124 -8869361.030 7797598.735 10 0 59398 40500.00000 0 23326131.035 -9189530.900 4711160.470 10 0 59398 41400.00000 0 23646698.366 -9438333.250 1533220.570 10 0 59398 42300.00000 0 23584517.440 -9561099.253 -1674505.675 10 0 59398 43200.00000 0 23160282.037 -9506952.965 -4849679.792 10 0 59398 44100.00000 0 22406469.742 -9231198.774 -7930555.333 10 0 59398 45000.00000 0 21365905.012 -8697458.303 -10857184.504 10 0 59398 45900.00000 0 20089904.195 -7879464.758 -13572592.039 10 0 59398 46800.00000 0 18636080.590 -6762437.067 -16023892.624 10 0 59398 47700.00000 0 17065902.195 -5343973.847 -18163329.210 10 0 59398 48600.00000 0 15442105.350 -3634427.527 -19949211.234 10 0 59398 49500.00000 0 13826073.547 -1656740.964 -21346733.881 10 0 59398 50400.00000 0 12275292.226 554248.220 -22328661.868 10 0 59398 51300.00000 0 10840986.945 2953007.829 -22875864.170 10 0 59398 52200.00000 0 9566044.414 5484966.745 -22977689.104 10 0 59398 53100.00000 0 8483303.837 8088557.478 -22632172.373 10 0 59398 54000.00000 0 7614290.063 10697560.897 -21846074.113 10 0 59398 54900.00000 0 6968441.237 13243655.517 -20634744.280 10 0 59398 55800.00000 0 6542862.655 15659065.011 -19021819.171 10 0 59398 56700.00000 0 6322616.050 17879193.521 -17038755.226 10 0 59398 57600.00000 0 6281530.875 19845138.812 -14724209.422 10 0 59398 58500.00000 0 6383501.961 21505978.347 -12123278.770 10 0 59398 59400.00000 0 6584217.302 22820733.110 -9286614.182 10 0 59398 60300.00000 0 6833241.536 23759927.542 -6269426.534 10 0 59398 61200.00000 0 7076365.676 24306681.093 -3130404.991 10 0 59398 62100.00000 0 7258122.513 24457286.775 69430.612 10 0 59398 63000.00000 0 7324360.280 24221253.789 3267920.397 10 0 59398 63900.00000 0 7224765.001 23620813.905 6402974.186 10 0 59398 64800.00000 0 6915224.395 22689913.890 9413776.499 10 0 59398 65700.00000 0 6359933.219 21472737.641 12241963.262 10 0 59398 66600.00000 0 5533151.194 20021821.276 14832747.440 10 0 59398 67500.00000 0 4420539.451 18395841.044 17135972.275 10 0 59398 68400.00000 0 3020019.308 16657167.151 19107072.536 10 0 59398 69300.00000 0 1342117.247 14869285.855 20707926.112 10 0 59398 70200.00000 0 -590218.688 13094197.108 21907580.709 10 0 59398 71100.00000 0 -2742324.071 11389895.491 22682842.843 10 0 59398 72000.00000 0 -5069016.317 9808038.438 23018718.811 10 0 59398 72900.00000 0 -7516237.366 8391897.576 22908700.090 10 0 59398 73800.00000 0 -10023074.091 7174677.189 22354888.193 10 0 59398 74700.00000 0 -12524074.128 6178268.704 21367956.759 10 0 59398 75600.00000 0 -14951762.783 5412492.037 19966951.366 10 0 59398 76500.00000 0 -17239258.207 4874854.749 18178930.261 10 0 59398 77400.00000 0 -19322877.594 4550838.685 16038451.968 10 0 59398 78300.00000 0 -21144627.232 4414701.974 13586918.501 10 0 59398 79200.00000 0 -22654473.490 4430762.909 10871785.504 10 0 59398 80100.00000 0 -23812300.333 4555112.086 7945653.446 10 0 59398 81000.00000 0 -24589471.520 4737681.018 4865256.376 10 0 59398 81900.00000 0 -24969931.737 4924580.248 1690366.981 10 0 59398 82800.00000 0 -24950799.734 5060608.200 -1517361.126 10 0 59398 83700.00000 0 -24542427.796 5091824.411 -4695591.547 10 0 59398 84600.00000 0 -23767924.157 4968077.538 -7782520.151 10 0 59398 85500.00000 0 -22662157.665 4645380.163 -10718082.729 99